Regional Weather Roundup
Issued by NWS

Home | Current Version | Previous Version | Graphics & Text | Print | Product List | Glossary On
Versions: 1 2 3 4 5 6 7 8 9 10 11 12 13 14 15 16 17 18 19 20 21 22 23 24 25 26 27 28 29 30 31 32 33 34 35 36 37 38 39 40 41 42 43 44 45 46 47 48 49 50
000
ASUS43 KDMX 291506
RWRIA

WEATHER ROUNDUP FOR IOWA
NATIONAL WEATHER SERVICE DES MOINES IA
1000 AM CDT THU JUN 29 2017

NOTE: "FAIR" INDICATES FEW OR NO CLOUDS BELOW 12,000 FEET WITH NO
SIGNIFICANT WEATHER AND/OR OBSTRUCTIONS TO VISIBILITY.

* - THESE STATIONS ARE NOT NWS STATIONS...THUS NOT UNDER NWS
QUALITY CONTROL.  THEY ALSO DO NOT REPORT WEATHER SUCH
AS PRECIPITATION OR FOG.

IAZ001>003-012>014-020>022-031>034-043>046-291600-
   NORTHWEST IOWA

CITY           SKY/WX    TMP DP  RH WIND       PRES   REMARKS
CARROLL *      CLOUDY    73  68  83 SW13      29.79S
CHEROKEE *     CLOUDY    71  66  83 E6        29.78S
DENISON *      CLOUDY    73  68  83 SW12      29.79F
LE MARS *      CLOUDY    73  63  68 E7G13     29.78S
ORANGE CITY *  CLOUDY    73  61  64 NE6       29.78F
SHELDON *      CLOUDY    73  59  60 NE7       29.77F
SIOUX CITY     CLOUDY    74  68  81 SE9       29.76R
SPENCER        CLOUDY    72  63  73 NE6       29.80R
STORM LAKE *   CLOUDY    72  64  78 SE6       29.79S
$$

IAZ055>058-069>071-079>083-090>094-291600-
   SOUTHWEST IOWA

CITY           SKY/WX    TMP DP  RH WIND       PRES   REMARKS
ATLANTIC *     CLOUDY    73  64  73 S13G21    29.79F
AUDUBON *      CLOUDY    73  66  78 S10       29.81F
CLARINDA *     CLOUDY    70  64  83 S9G16     29.86F
COUNCIL BLFS * CLOUDY    72  66  83 S8        29.73F
CRESTON *      CLOUDY    70  66  88 SW15G22   29.87R
HARLAN  *      CLOUDY    72  68  88 S10       29.80F
LAMONI         CLOUDY    69  66  90 W12       29.88R
RED OAK *      CLOUDY    72  64  78 S10       29.78F
SHENANDOAH *   CLOUDY    70  64  83 SE10      29.77F
$$

IAZ047>049-059>061-072>074-084-291600-
   CENTRAL IOWA

CITY           SKY/WX    TMP DP  RH WIND       PRES   REMARKS
AMES           CLOUDY    73  68  84 SW17      29.81R
ANKENY *       CLOUDY    73  66  78 SW13G20   29.83R
BOONE *        CLOUDY    73  68  83 SW8       29.81R
CHARITON *     CLOUDY    70  64  83 SW16G23   29.84R
DES MOINES     CLOUDY    73  65  75 SW18G26   29.81R
GRINNELL*      CLOUDY    71  65  80 SW13      29.84R
KNOXVILLE *    CLOUDY    72  64  78 SW17G23   29.81R
MARSHALLTOWN   CLOUDY    73  69  87 S9        29.81R
NEWTON *       CLOUDY    72  66  83 SW12G21   29.82R
PELLA *        CLOUDY    72  64  75 SW12G21   29.84R
PERRY *          N/A     73  69  87 S7        29.81R
$$

IAZ004>006-015-016-023>025-035-036-291600-
   NORTH CENTRAL IOWA

CITY           SKY/WX    TMP DP  RH WIND       PRES   REMARKS
ALGONA *       CLOUDY    70  64  83 CALM      29.80R
CLARION *        N/A     70  68  94 CALM      29.81R
ESTHERVILLE    PTSUNNY   70  64  81 N8        29.78S
FORT DODGE *   CLOUDY    72  64  78 NE5       29.81R
MASON CITY     PTSUNNY   71  62  73 W3        29.81R
FOREST CITY *    N/A     73  57  56 W3        29.80R
WEBSTER CITY * CLOUDY    73  68  83 CALM      29.78R
IOWA FALLS *   CLOUDY    71  68  91 CALM      29.82R
$$

IAZ007>011-017>019-026>030-037>042-050>054-066-291600-
   NORTHEAST IOWA

CITY           SKY/WX    TMP DP  RH WIND       PRES   REMARKS
CEDAR RAPIDS   PTSUNNY   71  68  90 SW10      29.81R
CHARLES CITY * CLOUDY    70  66  88 S7        29.79S
CLINTON *      CLOUDY    75  68  78 W14       29.80R
DECORAH *      CLOUDY    70  64  83 W7        29.77R
DUBUQUE        CLOUDY    70  65  84 W18       29.79R
MONTICELLO *   CLOUDY    73  68  83 W13       29.79R
OELWEIN *      CLOUDY    70  68  94 SW8       29.80R
WATERLOO       CLOUDY    71  66  84 VRB3      29.78R
$$

IAZ064-065-067-068-078-291600-
   EAST CENTRAL IOWA

CITY           SKY/WX    TMP DP  RH WIND       PRES   REMARKS
IOWA CITY      CLOUDY    74  64  71 SW12      29.83R
MT. PLEASANT * CLOUDY    70  63  76 SW15      29.84R
MUSCATINE *    CLOUDY    73  63  68 SW8       29.83R
QUAD CITIES    PTSUNNY   74  63  68 SW15G22   29.81R
$$

IAZ062-063-075>077-085>089-095>099-291600-
   SOUTHEAST IOWA

CITY           SKY/WX    TMP DP  RH WIND       PRES   REMARKS
BURLINGTON     CLOUDY    71  65  81 SW13      29.83R
FAIRFIELD *    CLOUDY    70  63  78 SW13G20   29.82R
FORT MADISON * CLOUDY    72  64  78 SW15      29.85S
KEOKUK *       CLOUDY    72  64  78 SW14G21   29.83F
OSKALOOSA *      N/A     69  64  82 SW13      29.85R
CENTERVILLE *  LGT RAIN  66  66 100 S26G36    29.84S
OTTUMWA        CLOUDY    70  65  84 SW13G18   29.83R
WASHINGTON *   CLOUDY    72  64  78 SW10      29.83R
$$

ABBREVIATIONS USED IN REMARKS
   TC - TEMPERATURES IN CELSIUS
  WCI - WIND CHILL INDEX
   HX - HEAT INDEX
  VSB - VISIBILITY
$$





USA.gov is the U.S. government's official web portal to all federal, state and local government web resources and services.